Location: Newark
(43.0000°N, 1.6781°W)
Time: 05:36:55
(UTC+00:00)

A-11 Canister half - All Passes

Search period start: 14 April 2021 00:00
Search period end: 24 April 2021 00:00
Orbit: 1515 x 1685 km, 47.2° (Epoch: 12 April)

Date Brightness Start Highest point End Pass type
(mag) Time Alt. Az. Time Alt. Az. Time Alt. Az.
14 Apr - 00:49:55 10° W 00:59:34 72° N 01:09:37 10° ENE visible
14 Apr - 02:55:29 10° WNW 03:05:23 78° NNE 03:15:34 10° ESE visible
14 Apr - 05:00:40 10° WNW 05:10:21 57° SW 05:20:12 10° SE daylight
14 Apr - 07:07:45 10° W 07:13:49 18° SW 07:19:54 10° SSW daylight
14 Apr - 20:21:14 10° S 20:27:56 22° SE 20:34:47 10° E visible
14 Apr - 22:22:09 10° SW 22:31:29 67° SE 22:41:11 10° ENE visible
15 Apr - 00:26:57 10° W 00:36:36 73° N 00:46:37 10° ENE visible
15 Apr - 02:32:33 10° WNW 02:42:24 77° NNE 02:52:34 10° E visible
15 Apr - 04:37:43 10° WNW 04:47:26 60° SW 04:57:20 10° SE visible
15 Apr - 06:44:30 10° W 06:50:59 19° SW 06:57:31 10° SSW daylight
15 Apr - 19:58:47 10° S 20:05:08 21° SE 20:11:36 10° E visible
15 Apr - 21:59:20 10° SW 22:08:35 64° SE 22:18:13 10° ENE visible
16 Apr - 00:04:00 10° W 00:13:37 74° NNW 00:23:37 10° ENE visible
16 Apr - 02:09:36 10° WNW 02:19:25 75° NNE 02:29:33 10° E visible
16 Apr - 04:14:46 10° WNW 04:24:31 63° SW 04:34:28 10° SE visible
16 Apr - 06:21:18 10° W 06:28:09 21° SW 06:35:04 10° S daylight
16 Apr - 19:36:23 10° SSE 19:42:20 19° SE 19:48:23 10° E visible
16 Apr - 21:36:31 10° SW 21:45:42 61° SE 21:55:14 10° ENE visible
16 Apr - 23:41:04 10° W 23:50:39 75° NNW 00:00:37 10° ENE visible
17 Apr - 01:46:39 10° WNW 01:56:27 74° NNE 02:06:32 10° E visible
17 Apr - 03:51:50 10° WNW 04:01:36 66° SW 04:11:35 10° SE visible
17 Apr - 05:58:08 10° W 06:05:19 23° SW 06:12:34 10° S daylight
17 Apr - 19:14:03 10° SSE 19:19:32 17° SE 19:25:07 10° E visible
17 Apr - 21:13:44 10° SW 21:22:49 58° SE 21:32:15 10° ENE visible
17 Apr - 23:18:08 10° W 23:27:40 77° NNW 23:37:38 10° ENE visible
18 Apr - 01:23:44 10° WNW 01:33:27 73° N 01:43:31 10° E visible
18 Apr - 03:28:53 10° WNW 03:38:40 69° SSW 03:48:42 10° SE visible
18 Apr - 05:35:01 10° W 05:42:29 24° SW 05:50:02 10° S daylight
18 Apr - 18:51:46 10° SSE 18:56:45 16° ESE 19:01:47 10° E daylight
18 Apr - 20:50:56 10° SW 20:59:57 55° SE 21:09:16 10° ENE visible
18 Apr - 22:55:12 10° WSW 23:04:43 78° NNW 23:14:38 10° ENE visible
19 Apr - 01:00:47 10° WNW 01:10:28 72° N 01:20:31 10° E visible
19 Apr - 03:05:58 10° WNW 03:15:45 71° SSW 03:25:48 10° SE visible
19 Apr - 05:11:54 10° WNW 05:19:37 26° SW 05:27:27 10° S daylight
19 Apr - 18:29:37 10° SSE 18:33:58 14° ESE 18:38:22 10° E daylight
19 Apr - 20:28:09 10° SSW 20:37:04 52° SE 20:46:18 10° ENE visible
19 Apr - 22:32:16 10° WSW 22:41:46 80° NNW 22:51:39 10° ENE visible
20 Apr - 00:37:50 10° WNW 00:47:30 71° N 00:57:30 10° E visible
20 Apr - 02:43:02 10° WNW 02:52:49 74° SSW 03:02:53 10° SE visible
20 Apr - 04:48:50 10° WNW 04:56:46 28° SW 05:04:51 10° S visible
20 Apr - 18:07:36 10° SE 18:11:11 13° ESE 18:14:47 10° E daylight
20 Apr - 20:05:24 10° SSW 20:14:13 50° SE 20:23:19 10° ENE visible
20 Apr - 22:09:20 10° WSW 22:18:48 82° NNW 22:28:40 10° ENE visible
21 Apr - 00:14:54 10° WNW 00:24:30 71° N 00:34:29 10° E visible
21 Apr - 02:20:07 10° WNW 02:29:53 77° SSW 02:39:57 10° SE visible
21 Apr - 04:25:47 10° WNW 04:33:55 30° SW 04:42:13 10° S visible
21 Apr - 17:45:53 10° SE 17:48:25 11° ESE 17:50:56 10° ESE daylight
21 Apr - 19:42:39 10° SSW 19:51:21 47° SE 20:00:19 10° ENE visible
21 Apr - 21:46:25 10° WSW 21:55:52 83° NNW 22:05:42 10° ENE visible
21 Apr - 23:51:57 10° W 00:01:32 70° N 00:11:28 10° E visible
22 Apr - 01:57:11 10° WNW 02:06:57 80° SSW 02:17:01 10° SE visible
22 Apr - 04:02:44 10° WNW 04:11:04 32° SW 04:19:33 10° S visible
22 Apr - 19:19:55 10° SSW 19:28:30 44° SE 19:37:20 10° ENE visible
22 Apr - 21:23:30 10° WSW 21:32:55 85° NNW 21:42:43 10° ENE visible
22 Apr - 23:29:00 10° W 23:38:33 70° N 23:48:27 10° E visible
23 Apr - 01:34:16 10° WNW 01:44:00 82° SSW 01:54:04 10° ESE visible
23 Apr - 03:39:44 10° WNW 03:48:12 34° SW 03:56:52 10° SSE visible
23 Apr - 18:57:12 10° SSW 19:05:39 42° SE 19:14:20 10° ENE daylight
23 Apr - 21:00:36 10° WSW 21:09:59 88° NNW 21:19:45 10° ENE visible
23 Apr - 23:06:04 10° W 23:15:34 69° N 23:25:26 10° E visible
